sat.trackr.live / text

‹ back to catalog

STARLINK-5930

NORAD 55928 · 2023-037Q

PAYLOAD ACTIVE UNKNOWN

§ Identity

Operator
Country
US
Launch date
2023-03-17
Launch site
AFWTR
Launch vehicle
Mass (kg)
RCS (m²)

Purposes: comms

External: N2YO · Heavens-Above · Gunter

§ Orbital elements

Epoch: 2026-05-25T03:33:04.778208Z

Period
96.11 min
Inclination
69.9991°
Eccentricity
0.0003103
Mean motion
14.98337816 rev/d
Perigee alt
569.9 km
Apogee alt
574.2 km
Semi-major
6,950.2 km
B*
-1.8791e-4
RAAN
111.5279°
Arg perigee
270.7123°
Mean anomaly
89.3680°
Rev number
17,494

§ Raw data

STARLINK-59301 55928U 23037Q   26145.14797197 -.00002335  00000+0 -18791-3 0  99902 55928  69.9991 111.5279 0003103 270.7123  89.3680 14.98337816174948

JSON: /api/v1/satellites/55928 · /tle

For live sub-satellite position, see the globe view (requires WebGL).

§ Visibility from observer

Set your observer location to see the next 7 days of passes ≥ 10°. The values pass through the URL so the page stays shareable.

No JS? Fill the form by hand. The geolocation button needs JavaScript.